#timestamp,LO_Frequency,Hit,StdDev 
1570356015.0,286047003.9,N
1570356015.9,286047003.9,N
1570356035.8,286047002.2,N
1570356055.6,286047002.0,N
1570356075.5,286047001.0,N
1570356095.3,286047001.2,N
1570356115.1,286046997.1,N
1570356135.9,286046995.1,N
1570356155.7,286046993.8,N
1570356175.5,286046998.8,N
1570356195.4,286047000.0,N
1570356215.2,286046999.6,N
1570356235.1,286046993.5,N
1570356236.0,286046993.5,N
1570356255.8,286046990.6,N
1570356275.6,286046990.0,N
1570356295.5,286046991.4,N
1570356315.3,286046996.1,N
1570356335.1,286046988.6,N
1570356355.9,286046988.0,N
1570356375.7,286046986.7,N
1570356395.6,286046985.9,N
1570356415.4,286046987.1,N
1570356435.2,286046989.3,N
1570356455.1,286046991.3,N
1570356456.0,286046991.3,N
1570356475.8,286046993.6,N
1570356495.7,286046996.0,N
1570356515.5,286046992.8,N
1570356535.3,286046989.2,N
1570356555.2,286046991.2,N
1570356575.9,286046994.1,N
1570356595.7,286046987.1,N
1570356615.6,286046988.2,N
1570356635.4,286046991.1,N
1570356655.2,286046987.2,Y
1570356675.1,286046992.5,P
1570356676.0,286046992.5,P
1570356695.8,286046987.8,P
1570356715.7,286046992.3,Y
1570356735.5,286047006.8,P
1570356755.3,286047008.6,N
1570356775.2,286047010.8,N
1570356795.0,286047011.8,N
1570356795.9,286047011.8,N
1570356815.8,286047012.4,N
1570356835.6,286047009.8,N
1570356855.4,286047013.7,N
1570356875.3,286047014.9,N
1570356895.1,286047013.6,N
1570356915.8,286047013.7,N
1570356935.7,286047017.3,N
1570356955.5,286047025.8,Y
1570356975.4,286047020.1,P
1570356995.2,286047012.6,N
1570357015.0,286047015.4,P
1570357015.9,286047015.4,Y
1570357035.8,286047011.0,P
1570357055.6,286047023.0,P
1570357075.4,286047020.7,P
1570357095.3,286047026.4,Y
1570357115.1,286047013.9,P
1570357135.9,286047007.6,P
1570357155.7,286047005.8,N
1570357175.5,286047002.0,N
1570357195.4,286046992.8,N
1570357215.2,286046983.9,N
1570357235.0,286046982.9,N
1570357236.0,286046982.9,N
1570357255.8,286046980.2,N
1570357275.6,286046972.9,N
1570357295.5,286046978.6,N
1570357315.3,286046977.9,N
1570357335.1,286046983.2,N
1570357355.9,286046977.3,N
1570357375.7,286046978.2,N
1570357395.6,286046981.8,N
1570357415.4,286046979.7,N
1570357435.2,286046977.2,N
1570357455.1,286046980.4,N
1570357456.0,286046980.4,N
1570357475.8,286046982.7,N
1570357495.7,286046989.1,N
1570357515.5,286046995.3,N
1570357535.3,286046995.6,N
1570357555.2,286046999.2,N
1570357575.0,286047002.6,N
1570357575.9,286047002.6,N
1570357595.8,286046998.5,N
1570357615.6,286047001.9,N
1570357635.5,286047000.2,N
1570357655.3,286047000.3,N
1570357675.1,286047001.0,N
1570357695.9,286046997.8,N
1570357715.7,286046995.1,N
1570357735.5,286046992.2,N
1570357755.4,286046990.3,N
1570357775.2,286046986.5,N
1570357825.1,286046988.2,E
1570357835.0,286046993.2,N
1570357835.9,286046993.2,P
1570357855.8,286047000.7,P
1570357875.6,286046996.8,N
1570357895.4,286046997.9,N
1570357915.3,286046993.6,N
1570357935.1,286046995.6,N
1570357955.8,286047005.7,N
1570357975.7,286047010.1,N
1570357995.5,286047007.7,N
1570358015.4,286047006.7,N
1570358035.2,286047000.0,N
1570358055.0,286047001.9,N
1570358055.9,286047001.9,N
1570358075.8,286046999.8,N
1570358095.6,286047002.1,N
1570358115.4,286047004.4,N
1570358135.3,286047000.4,N
1570358155.1,286047005.5,N
1570358175.9,286047007.0,N
1570358195.7,286047000.0,N
1570358215.5,286047000.7,N
1570358235.4,286047005.4,N
1570358255.2,286047007.2,N
1570358275.0,286047009.6,N
1570358275.9,286047009.6,N
1570358295.8,286047007.1,N
1570358315.6,286047008.9,N
1570358335.5,286047003.6,N
1570358355.3,286047003.7,N
1570358375.1,286047014.9,Y
1570358395.9,286047019.3,P
1570358415.7,286047021.0,N
1570358435.5,286047028.0,P
1570358455.4,286047024.7,N
1570358475.2,286047028.7,Y
1570358495.1,286047014.9,P
1570358496.0,286047014.9,P
1570358515.8,286047012.9,P
1570358535.6,286047011.3,Y
1570358555.5,286046988.5,P
1570358575.3,286046986.9,N
1570358595.2,286046981.3,N
1570358615.0,286046972.5,N
1570358615.9,286046972.5,N
1570358635.7,286046978.3,N
1570358655.6,286046972.6,N
1570358675.4,286046971.8,N
1570358695.3,286046966.4,N
1570358715.1,286046962.9,N
1570358716.0,286046962.9,N
1570358735.8,286046964.7,N
1570358755.7,286046964.2,N
1570358775.5,286046962.2,N
1570358795.3,286046955.0,Y
1570358815.2,286046988.4,P
1570358835.0,286046996.1,N
1570358835.9,286046996.1,N
1570358855.8,286046994.5,N
1570358875.6,286046991.0,N
1570358895.4,286046987.2,N
1570358915.3,286046981.5,N
1570358935.1,286046982.1,N
1570358955.9,286046985.9,N
1570358975.7,286046987.2,N
1570358995.5,286046985.3,N
1570359015.4,286046989.9,N
1570359035.2,286046994.8,N
1570359055.1,286046995.0,N
1570359056.0,286046995.0,N
1570359075.8,286047003.3,N
1570359095.6,286047002.9,N
1570359115.5,286047003.2,N
1570359135.3,286047008.3,N
1570359155.2,286047014.7,N
1570359175.9,286047007.1,N
1570359195.7,286047000.7,N
1570359215.6,286047004.0,N
1570359235.4,286047004.4,N
1570359255.2,286047004.6,N
1570359275.1,286047008.7,N
1570359276.0,286047008.7,N
1570359295.8,286047002.6,N
1570359315.7,286047000.3,N
1570359335.5,286046998.4,N
1570359355.3,286047002.5,N
1570359375.2,286047005.4,N
1570359395.0,286047007.1,N
1570359395.9,286047007.1,N
1570359415.8,286047005.9,N
1570359435.6,286047007.5,N
1570359455.4,286047002.5,N
1570359475.3,286047001.6,N
1570359495.1,286047008.6,N
1570359515.9,286047004.7,N
1570359535.7,286047000.7,N
1570359555.5,286046996.7,N
1570359575.4,286047001.1,N
1570359595.2,286047000.3,N
